JST201 YSSY-NZAA

Flight info

Callsign JST201
Flight time 2h 57m
Altitude 35000
Route EVONN L521 LUNBI
Aircraft A320/M-SDE3FGHIRWY/LB1

Departure

Time 2026-04-25 03:11
Airport Sydney Kingsford Smith International Airport (YSSY)

Arrival

Time 2026-04-25 06:08
Airport Auckland International Airport (NZAA)
Time Latitude Longitude Altitude Speed Heading
2026-04-25 02:28 -33.93994 151.16407 30 ft 0 kts 82°
2026-04-25 02:40 -33.93994 151.16406 30 ft 2 kts 82°
2026-04-25 02:40 -33.93997 151.16376 30 ft 4 kts 84°
2026-04-25 02:40 -33.94002 151.16344 30 ft 4 kts 69°
2026-04-25 02:40 -33.94008 151.16317 30 ft 4 kts 107°
2026-04-25 02:41 -33.93994 151.16299 30 ft 4 kts 170°
2026-04-25 02:41 -33.93974 151.16299 30 ft 0 kts 192°
2026-04-25 02:43 -33.93994 151.16293 30 ft 9 kts 194°
2026-04-25 02:44 -33.94078 151.16275 30 ft 15 kts 180°
2026-04-25 02:44 -33.94171 151.16330 30 ft 14 kts 116°
2026-04-25 02:44 -33.94150 151.16467 30 ft 20 kts 73°
2026-04-25 02:44 -33.94108 151.16646 30 ft 23 kts 74°
2026-04-25 02:45 -33.94065 151.16825 30 ft 20 kts 74°
2026-04-25 02:45 -33.94033 151.16964 30 ft 13 kts 74°
2026-04-25 02:45 -33.94017 151.17030 29 ft 0 kts 74°
2026-04-25 02:45 -33.94015 151.17038 30 ft 2 kts 74°
2026-04-25 02:46 -33.94014 151.17044 30 ft 0 kts 74°
2026-04-25 02:46 -33.94013 151.17046 30 ft 0 kts 74°
2026-04-25 02:46 -33.94006 151.17078 29 ft 7 kts 74°
2026-04-25 02:47 -33.93988 151.17152 29 ft 12 kts 74°
2026-04-25 02:47 -33.93963 151.17255 29 ft 13 kts 73°
2026-04-25 02:47 -33.93937 151.17361 26 ft 14 kts 74°
2026-04-25 02:47 -33.93919 151.17442 27 ft 9 kts 75°
2026-04-25 02:48 -33.93902 151.17515 28 ft 9 kts 75°
2026-04-25 02:48 -33.93885 151.17585 29 ft 8 kts 73°
2026-04-25 02:48 -33.93873 151.17637 29 ft 7 kts 73°
2026-04-25 02:48 -33.93859 151.17695 29 ft 8 kts 73°
2026-04-25 02:49 -33.93860 151.17760 29 ft 9 kts 122°
2026-04-25 02:49 -33.93917 151.17784 29 ft 10 kts 168°
2026-04-25 02:49 -33.93977 151.17799 29 ft 0 kts 168°
2026-04-25 02:50 -33.93994 151.17803 28 ft 7 kts 168°
2026-04-25 02:50 -33.94046 151.17817 28 ft 8 kts 168°
2026-04-25 02:50 -33.94106 151.17832 29 ft 9 kts 168°
2026-04-25 02:50 -33.94169 151.17849 29 ft 9 kts 168°
2026-04-25 02:51 -33.94220 151.17862 30 ft 8 kts 168°
2026-04-25 02:51 -33.94253 151.17871 30 ft 7 kts 168°
2026-04-25 02:51 -33.94306 151.17884 30 ft 8 kts 168°
2026-04-25 02:51 -33.94376 151.17902 30 ft 6 kts 168°
2026-04-25 02:52 -33.94405 151.17910 30 ft 6 kts 168°
2026-04-25 02:52 -33.94432 151.17913 30 ft 3 kts 181°
2026-04-25 02:52 -33.94453 151.17906 30 ft 4 kts 202°
2026-04-25 02:52 -33.94488 151.17882 30 ft 7 kts 204°
2026-04-25 02:53 -33.94537 151.17885 30 ft 6 kts 166°
2026-04-25 02:53 -33.94584 151.17897 30 ft 8 kts 169°
2026-04-25 02:53 -33.94659 151.17916 30 ft 14 kts 168°
2026-04-25 02:53 -33.94756 151.17942 30 ft 15 kts 168°
2026-04-25 02:54 -33.94867 151.17970 30 ft 18 kts 168°
2026-04-25 02:54 -33.95001 151.18004 30 ft 20 kts 167°
2026-04-25 02:54 -33.95101 151.18063 30 ft 15 kts 117°
2026-04-25 02:54 -33.95088 151.18169 30 ft 10 kts 77°
2026-04-25 02:55 -33.95074 151.18247 30 ft 10 kts 77°
2026-04-25 02:55 -33.95060 151.18322 30 ft 0 kts 78°
2026-04-25 02:55 -33.95060 151.18324 30 ft 1 kts 78°
2026-04-25 02:55 -33.95059 151.18330 30 ft 0 kts 78°
2026-04-25 02:56 -33.95058 151.18334 30 ft 4 kts 79°
2026-04-25 02:56 -33.95051 151.18379 30 ft 6 kts 78°
2026-04-25 02:56 -33.95044 151.18416 30 ft 0 kts 77°
2026-04-25 02:56 -33.95043 151.18421 30 ft 3 kts 77°
2026-04-25 02:57 -33.95050 151.18493 30 ft 13 kts 122°
2026-04-25 02:57 -33.95148 151.18577 30 ft 20 kts 138°
2026-04-25 02:57 -33.95261 151.18690 30 ft 22 kts 151°
2026-04-25 02:57 -33.95382 151.18735 30 ft 16 kts 168°
2026-04-25 02:58 -33.95496 151.18766 30 ft 17 kts 167°
2026-04-25 02:58 -33.95615 151.18797 30 ft 18 kts 167°
2026-04-25 02:58 -33.95747 151.18830 30 ft 21 kts 168°
2026-04-25 02:58 -33.95874 151.18863 30 ft 18 kts 168°
2026-04-25 02:59 -33.95986 151.18893 30 ft 16 kts 167°
2026-04-25 02:59 -33.96100 151.18923 30 ft 17 kts 168°
2026-04-25 02:59 -33.96219 151.18954 30 ft 18 kts 168°
2026-04-25 02:59 -33.96300 151.18974 30 ft 9 kts 168°
2026-04-25 03:00 -33.96368 151.18992 30 ft 11 kts 168°
2026-04-25 03:00 -33.96447 151.19012 30 ft 12 kts 168°
2026-04-25 03:00 -33.96528 151.19033 30 ft 11 kts 168°
2026-04-25 03:00 -33.96606 151.19053 30 ft 12 kts 167°
2026-04-25 03:01 -33.96682 151.19074 30 ft 11 kts 168°
2026-04-25 03:01 -33.96757 151.19066 30 ft 11 kts 191°
2026-04-25 03:01 -33.96837 151.19069 30 ft 12 kts 168°
2026-04-25 03:01 -33.96914 151.19088 30 ft 11 kts 168°
2026-04-25 03:02 -33.96973 151.19103 30 ft 4 kts 167°
2026-04-25 03:02 -33.97004 151.19112 30 ft 6 kts 167°
2026-04-25 03:02 -33.97052 151.19129 30 ft 8 kts 148°
2026-04-25 03:02 -33.97057 151.19204 29 ft 9 kts 73°
2026-04-25 03:03 -33.97055 151.19214 29 ft 0 kts 75°
2026-04-25 03:08 -33.97053 151.19223 29 ft 6 kts 75°
2026-04-25 03:08 -33.97035 151.19317 28 ft 16 kts 77°
2026-04-25 03:08 -33.96980 151.19353 24 ft 11 kts 338°
2026-04-25 03:08 -33.96961 151.19348 24 ft 0 kts 348°
2026-04-25 03:10 -33.96953 151.19345 26 ft 8 kts 347°
2026-04-25 03:10 -33.96677 151.19275 24 ft 77 kts 348°
2026-04-25 03:10 -33.95952 151.19085 28 ft 133 kts 348°
2026-04-25 03:10 -33.94930 151.18817 239 ft 156 kts 349°
2026-04-25 03:11 -33.93871 151.18664 792 ft 158 kts 11°
2026-04-25 03:11 -33.92898 151.19276 1345 ft 163 kts 47°
2026-04-25 03:11 -33.92411 151.20536 1736 ft 177 kts 84°
2026-04-25 03:11 -33.92729 151.22013 2037 ft 190 kts 115°
2026-04-25 03:12 -33.93351 151.23433 2513 ft 190 kts 117°
2026-04-25 03:12 -33.93797 151.24921 3032 ft 190 kts 94°
2026-04-25 03:12 -33.93792 151.26509 3561 ft 190 kts 86°
2026-04-25 03:12 -33.93748 151.28088 4051 ft 193 kts 86°
2026-04-25 03:13 -33.93699 151.29785 4255 ft 214 kts 86°
2026-04-25 03:13 -33.93645 151.31660 4479 ft 234 kts 86°
2026-04-25 03:13 -33.93585 151.33727 4766 ft 257 kts 87°
2026-04-25 03:13 -33.93522 151.35905 5370 ft 267 kts 87°
2026-04-25 03:14 -33.93456 151.38154 6106 ft 271 kts 88°
2026-04-25 03:14 -33.93390 151.40453 6858 ft 275 kts 88°
2026-04-25 03:14 -33.93323 151.42767 7563 ft 278 kts 88°
2026-04-25 03:14 -33.93463 151.45099 8275 ft 281 kts 106°
2026-04-25 03:15 -33.94260 151.47253 9014 ft 283 kts 118°
2026-04-25 03:15 -33.95205 151.49337 9753 ft 285 kts 119°
2026-04-25 03:15 -33.96178 151.51456 10290 ft 296 kts 119°
2026-04-25 03:15 -33.97188 151.53656 10592 ft 312 kts 119°
2026-04-25 03:16 -33.98272 151.56029 10714 ft 333 kts 118°
2026-04-25 03:16 -33.99420 151.58554 10833 ft 353 kts 118°
2026-04-25 03:16 -34.00628 151.61214 11034 ft 369 kts 118°
2026-04-25 03:16 -34.01874 151.63960 11527 ft 374 kts 119°
2026-04-25 03:17 -34.03130 151.66737 12097 ft 378 kts 119°
2026-04-25 03:17 -34.04378 151.69497 12656 ft 381 kts 119°
2026-04-25 03:17 -34.05652 151.72316 13233 ft 384 kts 119°
2026-04-25 03:17 -34.06936 151.75155 13810 ft 386 kts 119°
2026-04-25 03:18 -34.08229 151.78017 14365 ft 389 kts 119°
2026-04-25 03:18 -34.09529 151.80897 14886 ft 392 kts 119°
2026-04-25 03:18 -34.10842 151.83805 15405 ft 394 kts 119°
2026-04-25 03:18 -34.12140 151.86682 15916 ft 397 kts 119°
2026-04-25 03:19 -34.13467 151.89626 16438 ft 399 kts 119°
2026-04-25 03:19 -34.14795 151.92582 16966 ft 402 kts 119°
2026-04-25 03:19 -34.16136 151.95568 17498 ft 405 kts 119°
2026-04-25 03:19 -34.17483 151.98573 18022 ft 407 kts 119°
2026-04-25 03:20 -34.18840 152.01597 18533 ft 410 kts 118°
2026-04-25 03:20 -34.20010 152.04754 18978 ft 413 kts 110°
2026-04-25 03:20 -34.20956 152.08001 19422 ft 415 kts 110°
2026-04-25 03:20 -34.21919 152.11305 19875 ft 417 kts 110°
2026-04-25 03:21 -34.22884 152.14616 20315 ft 419 kts 110°
2026-04-25 03:21 -34.23853 152.17952 20758 ft 421 kts 110°
2026-04-25 03:21 -34.24824 152.21302 21175 ft 422 kts 110°
2026-04-25 03:21 -34.25796 152.24663 21562 ft 424 kts 110°
2026-04-25 03:22 -34.26775 152.28048 21949 ft 426 kts 110°
2026-04-25 03:22 -34.27745 152.31390 22310 ft 427 kts 110°
2026-04-25 03:22 -34.28733 152.34800 22670 ft 429 kts 110°
2026-04-25 03:22 -34.29720 152.38219 23012 ft 431 kts 110°
2026-04-25 03:23 -34.30712 152.41651 23353 ft 432 kts 110°
2026-04-25 03:23 -34.31703 152.45092 23693 ft 434 kts 110°
2026-04-25 03:23 -34.32683 152.48506 23993 ft 435 kts 110°
2026-04-25 03:23 -34.33681 152.51976 24263 ft 437 kts 110°
2026-04-25 03:24 -34.34681 152.55447 24679 ft 435 kts 110°
2026-04-25 03:24 -34.35676 152.58898 25087 ft 433 kts 110°
2026-04-25 03:24 -34.36655 152.62308 25483 ft 432 kts 110°
2026-04-25 03:24 -34.37635 152.65738 25881 ft 430 kts 110°
2026-04-25 03:25 -34.38607 152.69164 26267 ft 429 kts 110°
2026-04-25 03:25 -34.39577 152.72581 26687 ft 428 kts 110°
2026-04-25 03:25 -34.40550 152.76010 27104 ft 427 kts 110°
2026-04-25 03:25 -34.41514 152.79407 27528 ft 426 kts 110°
2026-04-25 03:26 -34.42466 152.82761 27956 ft 425 kts 110°
2026-04-25 03:26 -34.43428 152.86152 28399 ft 423 kts 110°
2026-04-25 03:26 -34.44390 152.89534 28847 ft 422 kts 110°
2026-04-25 03:26 -34.45347 152.92892 29286 ft 421 kts 110°
2026-04-25 03:27 -34.46287 152.96197 29718 ft 420 kts 110°
2026-04-25 03:27 -34.47236 152.99540 30148 ft 419 kts 110°
2026-04-25 03:27 -34.48180 153.02881 30574 ft 417 kts 110°
2026-04-25 03:27 -34.49118 153.06205 30935 ft 417 kts 110°
2026-04-25 03:28 -34.50059 153.09545 31292 ft 416 kts 110°
2026-04-25 03:28 -34.50981 153.12830 31645 ft 415 kts 110°
2026-04-25 03:28 -34.51912 153.16154 32025 ft 414 kts 111°
2026-04-25 03:28 -34.52838 153.19462 32391 ft 413 kts 111°
2026-04-25 03:29 -34.53762 153.22762 32751 ft 412 kts 111°
2026-04-25 03:29 -34.54674 153.26021 33111 ft 411 kts 111°
2026-04-25 03:29 -34.55593 153.29305 33467 ft 411 kts 111°
2026-04-25 03:29 -34.56512 153.32592 33823 ft 410 kts 111°
2026-04-25 03:30 -34.57432 153.35870 34162 ft 409 kts 111°
2026-04-25 03:30 -34.58347 153.39147 34490 ft 409 kts 111°
2026-04-25 03:30 -34.59256 153.42417 34761 ft 408 kts 111°
2026-04-25 03:30 -34.60162 153.45677 35040 ft 407 kts 111°
2026-04-25 03:31 -34.61057 153.48896 35303 ft 406 kts 111°
2026-04-25 03:31 -34.61957 153.52148 35413 ft 408 kts 111°
2026-04-25 03:31 -34.63795 153.58779 35425 ft 419 kts 111°
2026-04-25 03:32 -34.65674 153.65567 35424 ft 427 kts 111°
2026-04-25 03:32 -34.67554 153.72389 35424 ft 428 kts 111°
2026-04-25 03:33 -34.69441 153.79267 35430 ft 427 kts 111°
2026-04-25 03:33 -34.71317 153.86119 35426 ft 427 kts 111°
2026-04-25 03:34 -34.73189 153.92971 35429 ft 427 kts 111°
2026-04-25 03:34 -34.75050 153.99793 35432 ft 427 kts 111°
2026-04-25 03:35 -34.76606 154.05511 35443 ft 427 kts 111°
2026-04-25 03:35 -34.78788 154.13547 35448 ft 427 kts 111°
2026-04-25 03:36 -34.80337 154.19256 35447 ft 427 kts 111°
2026-04-25 03:36 -34.82192 154.26120 35456 ft 427 kts 110°
2026-04-25 03:37 -34.84348 154.34118 35441 ft 427 kts 110°
2026-04-25 03:37 -34.85885 154.39833 35462 ft 427 kts 110°
2026-04-25 03:38 -34.87723 154.46709 35455 ft 426 kts 110°
2026-04-25 03:38 -34.89566 154.53569 35463 ft 426 kts 110°
2026-04-25 03:39 -34.91409 154.60427 35460 ft 426 kts 110°
2026-04-25 03:39 -34.93229 154.67296 35459 ft 426 kts 110°
2026-04-25 03:40 -34.95032 154.74122 35467 ft 425 kts 110°
2026-04-25 03:40 -34.96850 154.80993 35467 ft 425 kts 110°
2026-04-25 03:41 -34.98668 154.87858 35464 ft 425 kts 110°
2026-04-25 03:41 -35.00478 154.94737 35464 ft 425 kts 110°
2026-04-25 03:42 -35.02271 155.01573 35466 ft 425 kts 110°
2026-04-25 03:42 -35.04070 155.08453 35462 ft 425 kts 110°
2026-04-25 03:43 -35.05871 155.15329 35464 ft 425 kts 110°
2026-04-25 03:43 -35.07652 155.22173 35441 ft 425 kts 110°
2026-04-25 03:44 -35.09440 155.29074 35445 ft 426 kts 110°
2026-04-25 03:44 -35.11233 155.35969 35454 ft 426 kts 110°
2026-04-25 03:45 -35.13008 155.42834 35451 ft 426 kts 110°
2026-04-25 03:45 -35.14788 155.49758 35457 ft 426 kts 109°
2026-04-25 03:46 -35.16573 155.56680 35453 ft 426 kts 110°
2026-04-25 03:46 -35.18346 155.63557 35456 ft 426 kts 109°
2026-04-25 03:47 -35.20122 155.70499 35464 ft 426 kts 109°
2026-04-25 03:47 -35.21882 155.77429 35465 ft 426 kts 109°
2026-04-25 03:48 -35.23640 155.84355 35450 ft 426 kts 109°
2026-04-25 03:48 -35.25404 155.91287 35467 ft 426 kts 109°
2026-04-25 03:49 -35.27153 155.98177 35472 ft 426 kts 109°
2026-04-25 03:49 -35.28900 156.05110 35464 ft 426 kts 109°
2026-04-25 03:50 -35.30640 156.12048 35461 ft 426 kts 109°
2026-04-25 03:50 -35.32387 156.18985 35460 ft 426 kts 109°
2026-04-25 03:51 -35.34129 156.25935 35459 ft 426 kts 109°
2026-04-25 03:51 -35.35859 156.32891 35461 ft 426 kts 109°
2026-04-25 03:52 -35.37574 156.39791 35466 ft 426 kts 109°
2026-04-25 03:52 -35.39305 156.46749 35467 ft 426 kts 109°
2026-04-25 03:53 -35.41032 156.53706 35461 ft 426 kts 109°
2026-04-25 03:53 -35.42753 156.60671 35473 ft 426 kts 108°
2026-04-25 03:54 -35.44467 156.67633 35468 ft 426 kts 108°
2026-04-25 03:54 -35.46162 156.74565 35467 ft 426 kts 108°
2026-04-25 03:55 -35.47877 156.81526 35469 ft 426 kts 108°
2026-04-25 03:55 -35.49589 156.88506 35469 ft 426 kts 108°
2026-04-25 03:56 -35.51284 156.95494 35467 ft 426 kts 108°
2026-04-25 03:56 -35.52979 157.02481 35466 ft 426 kts 108°
2026-04-25 03:57 -35.54657 157.09416 35468 ft 426 kts 108°
2026-04-25 03:57 -35.56342 157.16397 35468 ft 427 kts 108°
2026-04-25 03:58 -35.58026 157.23390 35472 ft 427 kts 108°
2026-04-25 03:58 -35.59703 157.30385 35472 ft 427 kts 108°
2026-04-25 03:59 -35.61387 157.37389 35470 ft 427 kts 108°
2026-04-25 03:59 -35.63062 157.44404 35472 ft 427 kts 108°
2026-04-25 04:00 -35.64729 157.51398 35473 ft 427 kts 108°
2026-04-25 04:00 -35.66389 157.58381 35482 ft 427 kts 107°
2026-04-25 04:01 -35.68045 157.65402 35479 ft 427 kts 107°
2026-04-25 04:01 -35.69698 157.72400 35476 ft 427 kts 107°
2026-04-25 04:02 -35.71358 157.79440 35473 ft 427 kts 107°
2026-04-25 04:02 -35.73012 157.86470 35473 ft 427 kts 107°
2026-04-25 04:03 -35.74645 157.93465 35476 ft 427 kts 107°
2026-04-25 04:03 -35.76289 158.00507 35474 ft 427 kts 107°
2026-04-25 04:04 -35.77924 158.07552 35473 ft 427 kts 106°
2026-04-25 04:04 -35.79324 158.14691 35473 ft 428 kts 103°
2026-04-25 04:05 -35.80501 158.21881 35478 ft 428 kts 102°
2026-04-25 04:05 -35.81668 158.29032 35476 ft 428 kts 103°
2026-04-25 04:06 -35.82888 158.36229 35475 ft 428 kts 103°
2026-04-25 04:06 -35.84120 158.43411 35475 ft 428 kts 103°
2026-04-25 04:07 -35.85343 158.50608 35477 ft 428 kts 103°
2026-04-25 04:07 -35.86556 158.57810 35477 ft 428 kts 103°
2026-04-25 04:08 -35.87757 158.64966 35474 ft 428 kts 103°
2026-04-25 04:08 -35.88958 158.72167 35474 ft 428 kts 103°
2026-04-25 04:09 -35.90161 158.79367 35474 ft 428 kts 103°
2026-04-25 04:09 -35.91364 158.86570 35474 ft 429 kts 102°
2026-04-25 04:10 -35.92558 158.93779 35473 ft 429 kts 102°
2026-04-25 04:10 -35.93749 159.00995 35472 ft 429 kts 102°
2026-04-25 04:11 -35.95518 159.11828 35469 ft 429 kts 102°
2026-04-25 04:12 -35.96703 159.19056 35473 ft 429 kts 102°
2026-04-25 04:12 -35.97882 159.26288 35473 ft 429 kts 102°
2026-04-25 04:13 -35.99055 159.33522 35475 ft 430 kts 102°
2026-04-25 04:13 -36.00221 159.40767 35473 ft 430 kts 102°
2026-04-25 04:14 -36.01377 159.47973 35472 ft 430 kts 102°
2026-04-25 04:14 -36.02546 159.55232 35476 ft 430 kts 102°
2026-04-25 04:15 -36.03702 159.62484 35477 ft 430 kts 102°
2026-04-25 04:15 -36.04853 159.69738 35474 ft 430 kts 102°
2026-04-25 04:16 -36.06002 159.77011 35472 ft 430 kts 102°
2026-04-25 04:16 -36.06952 159.83043 35471 ft 430 kts 102°
2026-04-25 04:17 -36.08092 159.90304 35476 ft 430 kts 102°
2026-04-25 04:17 -36.09230 159.97571 35473 ft 430 kts 101°
2026-04-25 04:18 -36.10546 160.06021 35470 ft 430 kts 101°
2026-04-25 04:18 -36.11492 160.12125 35469 ft 430 kts 101°
2026-04-25 04:19 -36.12607 160.19362 35470 ft 430 kts 101°
2026-04-25 04:19 -36.13722 160.26636 35465 ft 430 kts 101°
2026-04-25 04:20 -36.14841 160.33912 35467 ft 431 kts 101°
2026-04-25 04:20 -36.15954 160.41193 35471 ft 431 kts 101°
2026-04-25 04:21 -36.17056 160.48484 35471 ft 431 kts 101°
2026-04-25 04:21 -36.18157 160.55774 35476 ft 431 kts 101°
2026-04-25 04:22 -36.19256 160.63065 35476 ft 431 kts 101°
2026-04-25 04:22 -36.20351 160.70359 35474 ft 431 kts 101°
2026-04-25 04:23 -36.21439 160.77648 35476 ft 431 kts 101°
2026-04-25 04:23 -36.22526 160.84940 35475 ft 431 kts 101°
2026-04-25 04:24 -36.23607 160.92233 35475 ft 430 kts 101°
2026-04-25 04:24 -36.24678 160.99523 35474 ft 430 kts 101°
2026-04-25 04:25 -36.25750 161.06831 35476 ft 430 kts 101°
2026-04-25 04:25 -36.26809 161.14087 35474 ft 430 kts 101°
2026-04-25 04:26 -36.27869 161.21398 35475 ft 430 kts 100°
2026-04-25 04:26 -36.28922 161.28716 35474 ft 430 kts 100°
2026-04-25 04:27 -36.29974 161.36014 35471 ft 430 kts 100°
2026-04-25 04:27 -36.31021 161.43308 35470 ft 430 kts 100°
2026-04-25 04:28 -36.32062 161.50631 35468 ft 430 kts 100°
2026-04-25 04:28 -36.33091 161.57900 35465 ft 430 kts 100°
2026-04-25 04:29 -36.34131 161.65204 35473 ft 430 kts 100°
2026-04-25 04:29 -36.35165 161.72516 35473 ft 429 kts 100°
2026-04-25 04:30 -36.36173 161.79780 35473 ft 429 kts 100°
2026-04-25 04:30 -36.37190 161.87077 35466 ft 429 kts 100°
2026-04-25 04:31 -36.38214 161.94373 35468 ft 429 kts 100°
2026-04-25 04:31 -36.39218 162.01670 35466 ft 429 kts 100°
2026-04-25 04:32 -36.40214 162.08970 35468 ft 429 kts 100°
2026-04-25 04:32 -36.41220 162.16275 35463 ft 429 kts 100°
2026-04-25 04:33 -36.42221 162.23570 35466 ft 429 kts 100°
2026-04-25 04:33 -36.43206 162.30844 35465 ft 429 kts 100°
2026-04-25 04:34 -36.44192 162.38154 35464 ft 429 kts 100°
2026-04-25 04:34 -36.45169 162.45423 35464 ft 429 kts 100°
2026-04-25 04:35 -36.46141 162.52733 35461 ft 429 kts 99°
2026-04-25 04:35 -36.47110 162.60040 35462 ft 429 kts 100°
2026-04-25 04:36 -36.48092 162.67373 35467 ft 429 kts 100°
2026-04-25 04:36 -36.49061 162.74689 35466 ft 429 kts 99°
2026-04-25 04:37 -36.50018 162.81998 35462 ft 429 kts 99°
2026-04-25 04:37 -36.50967 162.89284 35461 ft 429 kts 99°
2026-04-25 04:38 -36.51917 162.96597 35458 ft 429 kts 99°
2026-04-25 04:38 -36.52862 163.03920 35457 ft 429 kts 99°
2026-04-25 04:39 -36.53803 163.11254 35452 ft 429 kts 99°
2026-04-25 04:39 -36.54736 163.18589 35453 ft 429 kts 99°
2026-04-25 04:40 -36.55664 163.25917 35452 ft 429 kts 99°
2026-04-25 04:40 -36.56587 163.33254 35453 ft 429 kts 99°
2026-04-25 04:41 -36.57511 163.40567 35450 ft 429 kts 99°
2026-04-25 04:41 -36.58434 163.47912 35450 ft 429 kts 99°
2026-04-25 04:42 -36.59351 163.55257 35454 ft 429 kts 99°
2026-04-25 04:42 -36.60256 163.62561 35453 ft 429 kts 99°
2026-04-25 04:43 -36.61162 163.69905 35445 ft 429 kts 99°
2026-04-25 04:43 -36.62060 163.77269 35446 ft 429 kts 99°
2026-04-25 04:44 -36.62958 163.84620 35439 ft 429 kts 99°
2026-04-25 04:44 -36.63846 163.91971 35441 ft 429 kts 99°
2026-04-25 04:45 -36.64728 163.99296 35438 ft 429 kts 99°
2026-04-25 04:45 -36.65613 164.06660 35443 ft 429 kts 99°
2026-04-25 04:46 -36.66496 164.14021 35443 ft 429 kts 99°
2026-04-25 04:46 -36.67367 164.21394 35441 ft 429 kts 99°
2026-04-25 04:47 -36.68224 164.28706 35435 ft 430 kts 99°
2026-04-25 04:47 -36.69088 164.36081 35439 ft 430 kts 99°
2026-04-25 04:48 -36.69958 164.43456 35438 ft 429 kts 99°
2026-04-25 04:48 -36.70820 164.50820 35439 ft 429 kts 98°
2026-04-25 04:49 -36.71665 164.58198 35439 ft 429 kts 98°
2026-04-25 04:49 -36.72506 164.65533 35440 ft 430 kts 98°
2026-04-25 04:50 -36.73354 164.72915 35439 ft 430 kts 98°
2026-04-25 04:50 -36.74191 164.80297 35438 ft 430 kts 98°
2026-04-25 04:51 -36.75005 164.87543 35437 ft 430 kts 98°
2026-04-25 04:51 -36.75838 164.94920 35434 ft 430 kts 98°
2026-04-25 04:52 -36.76667 165.02314 35433 ft 430 kts 98°
2026-04-25 04:52 -36.77481 165.09700 35437 ft 430 kts 98°
2026-04-25 04:53 -36.78288 165.17058 35408 ft 420 kts 98°
2026-04-25 04:53 -36.79083 165.24264 35416 ft 425 kts 98°
2026-04-25 04:54 -36.79880 165.31572 35413 ft 428 kts 98°
2026-04-25 04:54 -36.80685 165.38954 35409 ft 429 kts 98°
2026-04-25 04:55 -36.81484 165.46330 35411 ft 429 kts 98°
2026-04-25 04:55 -36.82271 165.53717 35411 ft 429 kts 98°
2026-04-25 04:56 -36.83052 165.61052 35415 ft 429 kts 98°
2026-04-25 04:56 -36.83836 165.68449 35414 ft 429 kts 98°
2026-04-25 04:57 -36.84613 165.75840 35418 ft 430 kts 98°
2026-04-25 04:57 -36.85382 165.83247 35422 ft 430 kts 98°
2026-04-25 04:58 -36.86151 165.90655 35422 ft 430 kts 98°
2026-04-25 04:58 -36.86922 165.98061 35419 ft 430 kts 98°
2026-04-25 04:59 -36.87681 166.05431 35420 ft 430 kts 98°
2026-04-25 04:59 -36.88438 166.12842 35420 ft 430 kts 98°
2026-04-25 05:00 -36.89188 166.20262 35422 ft 430 kts 98°
2026-04-25 05:00 -36.89936 166.27679 35420 ft 430 kts 98°
2026-04-25 05:01 -36.90677 166.35086 35421 ft 430 kts 98°
2026-04-25 05:01 -36.91410 166.42518 35414 ft 430 kts 98°
2026-04-25 05:02 -36.92144 166.49936 35413 ft 430 kts 98°
2026-04-25 05:02 -36.92871 166.57308 35416 ft 430 kts 98°
2026-04-25 05:03 -36.93598 166.64728 35414 ft 430 kts 98°
2026-04-25 05:03 -36.94318 166.72157 35413 ft 430 kts 97°
2026-04-25 05:04 -36.95031 166.79574 35410 ft 430 kts 97°
2026-04-25 05:04 -36.95622 166.85757 35410 ft 430 kts 97°
2026-04-25 05:05 -36.96328 166.93185 35414 ft 430 kts 97°
2026-04-25 05:05 -36.97033 167.00602 35411 ft 430 kts 97°
2026-04-25 05:06 -36.97728 167.07987 35410 ft 430 kts 97°
2026-04-25 05:06 -36.98416 167.15422 35407 ft 430 kts 97°
2026-04-25 05:07 -36.99105 167.22863 35411 ft 430 kts 97°
2026-04-25 05:07 -36.99797 167.30295 35406 ft 430 kts 97°
2026-04-25 05:08 -37.00473 167.37691 35398 ft 430 kts 97°
2026-04-25 05:08 -37.01141 167.45127 35398 ft 430 kts 97°
2026-04-25 05:09 -37.01813 167.52588 35398 ft 430 kts 97°
2026-04-25 05:09 -37.02479 167.60034 35404 ft 430 kts 97°
2026-04-25 05:10 -37.03132 167.67435 35399 ft 430 kts 97°
2026-04-25 05:10 -37.03783 167.74884 35397 ft 430 kts 97°
2026-04-25 05:11 -37.04439 167.82336 35396 ft 430 kts 97°
2026-04-25 05:11 -37.05100 167.89790 35396 ft 430 kts 97°
2026-04-25 05:12 -37.06049 168.00927 35393 ft 430 kts 97°
2026-04-25 05:12 -37.06682 168.08397 35389 ft 431 kts 97°
2026-04-25 05:13 -37.07314 168.15857 35392 ft 431 kts 97°
2026-04-25 05:13 -37.07944 168.23320 35392 ft 431 kts 97°
2026-04-25 05:14 -37.08563 168.30778 35384 ft 431 kts 97°
2026-04-25 05:15 -37.09484 168.41995 35389 ft 431 kts 97°
2026-04-25 05:15 -37.10096 168.49457 35383 ft 431 kts 97°
2026-04-25 05:16 -37.10699 168.56898 35387 ft 431 kts 97°
2026-04-25 05:16 -37.11302 168.64379 35386 ft 431 kts 97°
2026-04-25 05:17 -37.11901 168.71853 35391 ft 431 kts 97°
2026-04-25 05:17 -37.12494 168.79340 35388 ft 431 kts 97°
2026-04-25 05:18 -37.13083 168.86833 35381 ft 431 kts 97°
2026-04-25 05:18 -37.13663 168.94289 35379 ft 431 kts 97°
2026-04-25 05:19 -37.14236 169.01773 35381 ft 431 kts 97°
2026-04-25 05:19 -37.14805 169.09254 35379 ft 431 kts 97°
2026-04-25 05:20 -37.15373 169.16758 35376 ft 431 kts 97°
2026-04-25 05:20 -37.15944 169.24244 35375 ft 431 kts 97°
2026-04-25 05:21 -37.16506 169.31744 35372 ft 432 kts 97°
2026-04-25 05:21 -37.17057 169.39204 35372 ft 432 kts 97°
2026-04-25 05:22 -37.17611 169.46708 35377 ft 432 kts 97°
2026-04-25 05:22 -37.18155 169.54209 35374 ft 432 kts 97°
2026-04-25 05:23 -37.18696 169.61729 35373 ft 432 kts 97°
2026-04-25 05:23 -37.19234 169.69185 35372 ft 432 kts 97°
2026-04-25 05:24 -37.19764 169.76699 35366 ft 432 kts 97°
2026-04-25 05:24 -37.20287 169.84214 35372 ft 432 kts 97°
2026-04-25 05:25 -37.20810 169.91744 35365 ft 432 kts 97°
2026-04-25 05:25 -37.21330 169.99224 35363 ft 432 kts 96°
2026-04-25 05:26 -37.21836 170.06746 35360 ft 432 kts 96°
2026-04-25 05:26 -37.22338 170.14273 35359 ft 432 kts 96°
2026-04-25 05:27 -37.22842 170.21793 35362 ft 433 kts 97°
2026-04-25 05:27 -37.23346 170.29325 35359 ft 433 kts 97°
2026-04-25 05:28 -37.23846 170.36854 35356 ft 433 kts 96°
2026-04-25 05:28 -37.24335 170.44346 35356 ft 433 kts 96°
2026-04-25 05:29 -37.24817 170.51883 35353 ft 433 kts 96°
2026-04-25 05:29 -37.25301 170.59440 35356 ft 433 kts 96°
2026-04-25 05:30 -37.25663 170.66980 35352 ft 435 kts 90°
2026-04-25 05:30 -37.25455 170.74592 35345 ft 435 kts 90°
2026-04-25 05:31 -37.25240 170.82183 35338 ft 435 kts 90°
2026-04-25 05:31 -37.25023 170.89776 35343 ft 435 kts 90°
2026-04-25 05:32 -37.24802 170.97378 35353 ft 436 kts 90°
2026-04-25 05:32 -37.24573 171.04983 35349 ft 436 kts 90°
2026-04-25 05:33 -37.24346 171.12533 35345 ft 436 kts 90°
2026-04-25 05:33 -37.24117 171.20151 35337 ft 436 kts 90°
2026-04-25 05:34 -37.23876 171.27755 35341 ft 436 kts 90°
2026-04-25 05:34 -37.23625 171.35366 35346 ft 437 kts 90°
2026-04-25 05:35 -37.23373 171.42984 35345 ft 437 kts 90°
2026-04-25 05:35 -37.23121 171.50603 35344 ft 437 kts 90°
2026-04-25 05:36 -37.22857 171.58223 35338 ft 437 kts 90°
2026-04-25 05:36 -37.22585 171.65810 35338 ft 437 kts 90°
2026-04-25 05:37 -37.22312 171.73452 35334 ft 438 kts 90°
2026-04-25 05:37 -37.22039 171.81101 35331 ft 438 kts 90°
2026-04-25 05:38 -37.21760 171.88750 35327 ft 438 kts 90°
2026-04-25 05:38 -37.21478 171.96341 35328 ft 438 kts 90°
2026-04-25 05:39 -37.21187 172.03994 35339 ft 439 kts 90°
2026-04-25 05:39 -37.20886 172.11667 35333 ft 439 kts 89°
2026-04-25 05:40 -37.20585 172.19286 35327 ft 440 kts 89°
2026-04-25 05:40 -37.20284 172.26956 35324 ft 440 kts 89°
2026-04-25 05:41 -37.19972 172.34635 35326 ft 441 kts 89°
2026-04-25 05:41 -37.19655 172.42315 35333 ft 441 kts 89°
2026-04-25 05:42 -37.19325 172.50015 35324 ft 441 kts 89°
2026-04-25 05:42 -37.19001 172.57704 35323 ft 442 kts 89°
2026-04-25 05:43 -37.18727 172.64100 35325 ft 442 kts 89°
2026-04-25 05:43 -37.18332 172.73048 35326 ft 442 kts 89°
2026-04-25 05:44 -37.17994 172.80750 35326 ft 442 kts 89°
2026-04-25 05:44 -37.17651 172.88448 35321 ft 442 kts 89°
2026-04-25 05:45 -37.17351 172.94858 35321 ft 442 kts 89°
2026-04-25 05:45 -37.16986 173.02557 35322 ft 442 kts 89°
2026-04-25 05:46 -37.16622 173.10267 35322 ft 442 kts 89°
2026-04-25 05:46 -37.16263 173.17969 35327 ft 443 kts 89°
2026-04-25 05:47 -37.15895 173.25692 35320 ft 443 kts 89°
2026-04-25 05:47 -37.15521 173.33403 35319 ft 443 kts 89°
2026-04-25 05:48 -37.15136 173.41097 35305 ft 437 kts 88°
2026-04-25 05:48 -37.14338 173.48495 35302 ft 430 kts 81°
2026-04-25 05:49 -37.13129 173.55823 35311 ft 429 kts 81°
2026-04-25 05:49 -37.11927 173.63157 35301 ft 429 kts 81°
2026-04-25 05:50 -37.10717 173.70498 35306 ft 429 kts 81°
2026-04-25 05:50 -37.09511 173.77791 35270 ft 430 kts 81°
2026-04-25 05:50 -37.08893 173.81514 34336 ft 438 kts 81°
2026-04-25 05:51 -37.08273 173.85262 33090 ft 447 kts 81°
2026-04-25 05:51 -37.07624 173.89092 32127 ft 450 kts 79°
2026-04-25 05:51 -37.06490 173.92733 31497 ft 451 kts 63°
2026-04-25 05:51 -37.04560 173.95845 30734 ft 458 kts 47°
2026-04-25 05:52 -37.01940 173.98185 29923 ft 467 kts 31°
2026-04-25 05:52 -36.98862 173.99602 29054 ft 475 kts 20°
2026-04-25 05:52 -36.95654 174.00711 28211 ft 478 kts 19°
2026-04-25 05:52 -36.92438 174.01809 27400 ft 480 kts 19°
2026-04-25 05:53 -36.89254 174.02903 26619 ft 481 kts 19°
2026-04-25 05:53 -36.86011 174.04026 25850 ft 483 kts 19°
2026-04-25 05:53 -36.82771 174.05159 25110 ft 484 kts 20°
2026-04-25 05:53 -36.79696 174.06775 24377 ft 476 kts 35°
2026-04-25 05:54 -36.77152 174.09323 23638 ft 464 kts 51°
2026-04-25 05:54 -36.75351 174.12581 22957 ft 453 kts 67°
2026-04-25 05:54 -36.74356 174.20051 21490 ft 435 kts 100°
2026-04-25 05:55 -36.75196 174.23631 20786 ft 430 kts 115°
2026-04-25 05:55 -36.76776 174.26767 20094 ft 426 kts 130°
2026-04-25 05:55 -36.78970 174.29231 19425 ft 425 kts 144°
2026-04-25 05:55 -36.81439 174.31242 18770 ft 424 kts 146°
2026-04-25 05:56 -36.83906 174.33232 18046 ft 421 kts 146°
2026-04-25 05:56 -36.86355 174.35208 17301 ft 417 kts 146°
2026-04-25 05:56 -36.88786 174.37173 16585 ft 414 kts 146°
2026-04-25 05:56 -36.91171 174.39105 15889 ft 411 kts 146°
2026-04-25 05:57 -36.93431 174.41238 15186 ft 406 kts 135°
2026-04-25 05:57 -36.95117 174.44031 14520 ft 402 kts 118°
2026-04-25 05:57 -36.96068 174.47290 13831 ft 400 kts 102°
2026-04-25 05:57 -36.96229 174.50756 13084 ft 400 kts 86°
2026-04-25 05:58 -36.95606 174.54137 12368 ft 399 kts 72°
2026-04-25 05:58 -36.94710 174.57401 11662 ft 396 kts 72°
2026-04-25 05:58 -36.93814 174.60638 10971 ft 392 kts 72°
2026-04-25 05:58 -36.92925 174.63842 10390 ft 386 kts 72°
2026-04-25 05:59 -36.92067 174.66929 10262 ft 367 kts 72°
2026-04-25 05:59 -36.91250 174.69864 10134 ft 350 kts 72°
2026-04-25 05:59 -36.90472 174.72678 10001 ft 335 kts 72°
2026-04-25 05:59 -36.89895 174.75437 9869 ft 320 kts 82°
2026-04-25 06:00 -36.89529 174.78084 9726 ft 297 kts 81°
2026-04-25 06:00 -36.89178 174.80539 9417 ft 283 kts 81°
2026-04-25 06:00 -36.88834 174.82943 8893 ft 278 kts 82°
2026-04-25 06:00 -36.88500 174.85283 8338 ft 275 kts 82°
2026-04-25 06:01 -36.88164 174.87629 7788 ft 272 kts 82°
2026-04-25 06:01 -36.87828 174.89955 7250 ft 270 kts 81°
2026-04-25 06:01 -36.87496 174.92250 6711 ft 267 kts 81°
2026-04-25 06:01 -36.87168 174.94528 6149 ft 265 kts 81°
2026-04-25 06:02 -36.86852 174.96765 5794 ft 253 kts 84°
2026-04-25 06:02 -36.86974 174.98884 5671 ft 240 kts 110°
2026-04-25 06:02 -36.87804 175.00605 5466 ft 233 kts 135°
2026-04-25 06:02 -36.89181 175.01699 4963 ft 238 kts 161°
2026-04-25 06:03 -36.90756 175.02311 4393 ft 238 kts 170°
2026-04-25 06:03 -36.92403 175.02318 3829 ft 239 kts 192°
2026-04-25 06:03 -36.93909 175.01532 3517 ft 229 kts 214°
2026-04-25 06:03 -36.95012 175.00208 3278 ft 218 kts 234°
2026-04-25 06:04 -36.95669 174.98563 3014 ft 208 kts 251°
2026-04-25 06:04 -36.96135 174.96881 2750 ft 203 kts 250°
2026-04-25 06:04 -36.96600 174.95213 2471 ft 202 kts 250°
2026-04-25 06:04 -36.97059 174.93563 2207 ft 199 kts 249°
2026-04-25 06:05 -36.97494 174.91998 1951 ft 183 kts 248°
2026-04-25 06:05 -36.97900 174.90537 1696 ft 172 kts 250°
2026-04-25 06:05 -36.98276 174.89184 1466 ft 154 kts 249°
2026-04-25 06:05 -36.98615 174.87964 1270 ft 143 kts 248°
2026-04-25 06:06 -36.98933 174.86819 1082 ft 138 kts 249°
2026-04-25 06:06 -36.99247 174.85691 897 ft 137 kts 248°
2026-04-25 06:06 -36.99558 174.84567 716 ft 136 kts 250°
2026-04-25 06:06 -36.99869 174.83447 543 ft 135 kts 249°
2026-04-25 06:07 -37.00178 174.82333 367 ft 136 kts 248°
2026-04-25 06:07 -37.00486 174.81227 192 ft 133 kts 248°
2026-04-25 06:07 -37.00787 174.80135 37 ft 132 kts 249°
2026-04-25 06:07 -37.01040 174.79224 26 ft 77 kts 251°
2026-04-25 06:08 -37.01139 174.78865 28 ft 33 kts 251°
2026-04-25 06:08 -37.01213 174.78594 30 ft 34 kts 252°
2026-04-25 06:08 -37.01246 174.78324 26 ft 25 kts 272°
2026-04-25 06:08 -37.01218 174.78107 28 ft 15 kts 288°
2026-04-25 06:09 -37.01151 174.78125 27 ft 13 kts 63°
2026-04-25 06:09 -37.01120 174.78237 27 ft 15 kts 72°
2026-04-25 06:09 -37.01077 174.78355 29 ft 16 kts 46°
2026-04-25 06:09 -37.00986 174.78371 26 ft 0 kts 339°
2026-04-25 06:10 -37.00981 174.78368 26 ft 2 kts 339°
2026-04-25 06:10 -37.00947 174.78360 28 ft 9 kts 356°
2026-04-25 06:10 -37.00864 174.78370 26 ft 18 kts
2026-04-25 06:10 -37.00788 174.78340 26 ft 8 kts 286°
2026-04-25 06:11 -37.00763 174.78278 29 ft 7 kts 298°
2026-04-25 06:11 -37.00757 174.78264 29 ft 0 kts 297°